Zurück zum Katalog

STARLINK-3242

AktivKommunikationVLEO
NORAD 49727·PAYLOAD·🇺🇸 United States

Gestartet Dec 2, 2021 von Cape Canaveral Space Force Station

Loading…

Nächste Überflüge (nächste 24 Stunden)

TLE

AktuellSource: CelesTrak SupGP

Epoche: Sep 14, 2026, 20:58 UTC

1 49727C 21115D   26257.87409722  .00008265  00000+0  24419-3 0  2570
2 49727  53.1603  16.3074 0001229  70.2402  52.5752 15.34385860    19

Verfolge STARLINK-3242 in Echtzeit mit AllMySat

Download on the App Store